This demonstration page uses our WeatherBlox Daily Observations layout. Learn more.

Left ArrowRight Arrow

39.01783, -85.05884

Hourly Observations for October 5, 2022

Temp ( °F °C ) Dew Point ( °F °C ) Humidity (%) Winds ( mph kmh ) Pressure ( in mb ) Visibility ( mi km ) Precip ( " mm )
12:52 am 00:52 Clear 52 11.1 41 5 66 66 Calm 30.13 1020 10 16 0.00 0.00
1:52 am 01:52 Clear 52 11.1 41 5 66 66 NW 3 6 30.11 1020 10 16 0.00 0.00
2:52 am 02:52 Clear 49 9.4 41 5 74 74 Calm 30.11 1020 10 16 0.00 0.00
3:52 am 03:52 Clear 46 7.8 40 4.4 79 79 Calm 30.11 1020 10 16 0.00 0.00
4:52 am 04:52 Clear 45 7.2 41 5 86 86 NW 6 9 30.10 1019 10 16 0.00 0.00
5:52 am 05:52 Clear 47 8.3 40 4.4 76 76 NW 6 9 30.11 1020 10 16 0.00 0.00
6:52 am 06:52 Clear 44 6.7 42 5.6 93 93 Calm 30.12 1020 10 16 0.00 0.00
7:52 am 07:52 Sunny 44 6.7 40 4.4 85 85 Calm 30.14 1021 7 11 0.00 0.00
8:52 am 08:52 Sunny 49 9.4 43 6.1 80 80 Calm 30.15 1021 10 16 0.00 0.00
9:52 am 09:52 Sunny 57 13.9 43 6.1 59 59 Calm 30.15 1021 10 16 0.00 0.00
10:52 am 10:52 Sunny 64 17.8 38 3.3 38 38 Calm 30.16 1021 10 16 0.00 0.00
11:52 am 11:52 Mostly Sunny 69 20.6 35 1.7 28 28 NNE 3 6 30.15 1021 10 16 0.00 0.00
12:52 pm 12:52 Mostly Sunny 81 27.2 37 2.8 21 21 Calm 30.12 1020 10 16 0.00 0.00
1:52 pm 13:52 Partly Cloudy 74 23.3 38 3.3 27 27 VRB 5 7 30.11 1020 10 16 0.00 0.00
2:52 pm 14:52 Partly Cloudy 74 23.3 34 1.1 23 23 N 10 17 30.09 1019 10 16 0.00 0.00
3:52 pm 15:52 Mostly Cloudy 75 23.9 35 1.7 23 23 Calm 30.07 1018 10 16 0.00 0.00
4:52 pm 16:52 Mostly Cloudy 75 23.9 39 3.9 27 27 NW 6 9 30.07 1018 10 16 0.00 0.00
5:52 pm 17:52 Partly Cloudy 75 23.9 40 4.4 28 28 N 5 7 30.06 1018 10 16 0.00 0.00
6:52 pm 18:52 Partly Cloudy 71 21.7 40 4.4 32 32 NNW 5 7 30.07 1018 10 16 0.00 0.00
7:52 pm 19:52 Mostly Cloudy 63 17.2 41 5 44 44 SW 3 6 30.08 1019 10 16 0.00 0.00
8:52 pm 20:52 Partly Cloudy 61 16.1 42 5.6 50 50 SW 6 9 30.08 1019 10 16 0.00 0.00
9:52 pm 21:52 Mostly Cloudy 57 13.9 45 7.2 64 64 Calm 30.07 1018 10 16 0.00 0.00
10:52 pm 22:52 Clear 56 13.3 44 6.7 64 64 Calm 30.07 1018 10 16 0.00 0.00
11:52 pm 23:52 Clear 52 11.1 46 7.8 80 80 Calm 30.07 1018 10 16 0.00 0.00

Powered by AerisWeather